Location: Berg
(47.2344°N, 9.5296°E)
Time: 21:51:25
(UTC+00:00)

Cosmos 2098 Rocket - Pass Details

Date: 24 January 2021
Orbit: 366 x 1182 km, 82.9° (Epoch: 03 March)

Event Time Altitude Azimuth Distance (km) Brightness Sun altitude
Rises 17:44:26 0° 169° (SSE) 3,926 7.2 -15.6°
Reaches altitude 10° 17:47:03 10° 165° (SSE) 3,030 6.5 -16.0°
Maximum altitude 17:54:04 54° 90° (E) 1,416 4.5 -17.2°
Drops below altitude 10° 18:01:10 10° 17° (NNE) 3,063 6.3 -18.4°
Sets 18:03:50 0° 13° (NNE) 3,973 7.0 -18.8°
